Weather Roundup
Issued by NWS

Home | Current Version | Previous Version | Graphics & Text | Print | Product List | Glossary Off
Versions: 1 2 3 4 5 6 7 8 9 10 11 12 13 14 15 16 17 18 19 20 21 22 23 24 25 26 27 28 29 30 31 32 33 34 35 36 37 38 39 40 41 42 43 44 45 46 47 48 49 50

000
NZUS93 KARX 291710
HRRWXR

CURRENT HOURLY OBSERVATIONS ACROSS
MUCH OF THE UPPER MISSISSIPPI VALLEY
NATIONAL WEATHER SERVICE LA CROSSE WI
1200 PM CDT MON SEP 29 2014


...SOUTHEAST MINNESOTA...


CITY           SKY/WX    TMP DP  RH WIND       PRES   REMARKS
ROCHESTER      LGT RAIN  57  56  96 N14       30.10R VSB 1
ROCHESTER/MAYO CLOUDY    56  54  94 N7        30.10R
WINONA         CLOUDY    61  54  77 N5        30.09R
AUSTIN         CLOUDY    61  57  88 N8        30.08S FOG
ALBERT LEA     CLOUDY    61  57  88 N12G17    30.09R FOG
DODGE CENTER   CLOUDY    57  55  94 N13       30.10R
PRESTON        CLOUDY    60  58  94 N7        30.08R FOG
OWATONNA       SUNNY     59  52  77 NE12G18   30.10S
FARIBAULT      MOSUNNY   63  46  55 NE9G17    30.12R
$$

...ELSEWHERE IN MINNESOTA...


CITY           SKY/WX    TMP DP  RH WIND       PRES   REMARKS
MINNEAPOLIS    PTSUNNY   53  48  83 NE13      30.14S
INTNL FALLS    CLOUDY    44  40  85 NE9       30.26F
DULUTH         DRIZZLE   46  42  86 E9        30.21S FOG
RED WING       DRIZZLE   54  46  76 NE8       30.12R
REDWOOD FALLS  CLOUDY    58  52  80 NE9       30.14R
MANKATO        CLOUDY    61  50  67 N13       30.11R
WORTHINGTON    CLOUDY    59  54  82 NE10      30.13S
FAIRMONT       CLOUDY    61  54  77 N6        30.10S
$$

...SOUTHWEST WISCONSIN...


CITY           SKY/WX    TMP DP  RH WIND       PRES   REMARKS
LA CROSSE      CLOUDY    62  54  74 N10       30.06S
PRAIRIE DU CHI SUNNY     76  58  54 CALM      30.01F
BOSCOBEL       SUNNY     79  60  52 SW6       30.01F
LONE ROCK      SUNNY     81  58  45 W8        30.01F
PLATTEVILLE    SUNNY     78  58  49 W9        30.04F
FORT MC COY    CLOUDY    59  54  82 NW9       30.07S
CAMP DOUGLAS   CLOUDY    61  61 100 NW10      30.05R
VIROQUA        FAIR      72  59  62 NW6       30.04S
WIS DELLS      CLOUDY    75  55  50 W8        30.00F
$$

...ELSEWHERE IN WISCONSIN...


CITY           SKY/WX    TMP DP  RH WIND       PRES   REMARKS
MILWAUKEE      MOSUNNY   80  57  45 W9        29.99F
MADISON        MOSUNNY   79  57  46 W8        30.00F
GREEN BAY      LGT RAIN  54  53  97 N12       30.04R FOG
EAU CLAIRE     CLOUDY    51  44  77 N12       30.12R
BLACK RVR FLS  CLOUDY    58  51  78 N7        30.07S
MEDFORD        CLOUDY    47  45  91 N8        30.10S
WAUSAU         LGT RAIN  49  46  90 N8        30.07S
WIS RAPIDS     CLOUDY    58  51  78 N12G21    30.07R
MARSHFIELD     CLOUDY    51  46  83 N12       30.08R
RICE LAKE      CLOUDY    51  44  76 N10G16    30.16S
$$

...NORTHEAST IOWA...


CITY           SKY/WX    TMP DP  RH WIND       PRES   REMARKS
DECORAH        SUNNY     73  59  60 VRB6      30.03S
MASON CITY     MOSUNNY   66  60  81 VRB5      30.08F
CHARLES CITY   MOSUNNY   75  59  57 W7        30.05F
OELWEIN        SUNNY     77  59  53 VRB7      30.04F
$$

...ELSEWHERE IN IOWA...


CITY           SKY/WX    TMP DP  RH WIND       PRES   REMARKS
DES MOINES     PTSUNNY   79  58  48 W7        30.05F
IOWA CITY      SUNNY     79  60  52 W7        30.05F
FORT DODGE     MOSUNNY   68  61  77 NE3       30.08S
$$

...NORTHERN ILLINOIS...


CITY           SKY/WX    TMP DP  RH WIND       PRES   REMARKS
CHICAGO-OHARE  SUNNY     78  57  48 VRB6      30.01F
CHICAGO-MIDWAY NOT AVBL
MOLINE         SUNNY     80  61  52 NW7       30.04F
ROCKFORD       MOSUNNY   80  58  46 NW8       30.03F
PEORIA         SUNNY     83  57  41 W5        30.04F
$$

NOTE: "FAIR" INDICATES FEW OR NO CLOUDS BELOW 12,000 FEET WITH NO
SIGNIFICANT WEATHER AND/OR OBSTRUCTIONS TO VISIBILITY. WIND
SPEEDS ARE IN MILES-PER-HOUR.



USA.gov is the U.S. government's official web portal to all federal, state and local government web resources and services.